START_TIME,STEP,MOV.,A39,t_acc.,A33,t_acc.,P32,t_acc.,P31,t_acc.
1979-03-09 00:00:20.720 ,2,0,3.,0.8,1.,0.8,0.,0.8,9.,0.8
1979-03-09 00:00:21.520 ,2,0,3.,0.8,0.,0.8,0.,0.8,11.,0.8
1979-03-09 00:00:22.320 ,2,0,2.,0.8,0.,0.8,0.,0.8,18.,0.8
1979-03-09 00:00:23.120 ,2,0,2.,0.8,0.,0.8,0.,0.8,4.,0.8
1979-03-09 00:00:23.920 ,2,0,2.,0.8,0.,0.8,0.,0.8,16.,0.8
1979-03-09 00:00:24.720 ,2,0,1.,0.8,0.,0.8,0.,0.8,11.,0.8
1979-03-09 00:00:25.520 ,2,0,2.,0.8,0.,0.8,0.,0.8,9.,0.8
1979-03-09 00:00:26.320 ,2,0,0.,0.8,0.,0.8,0.,0.8,1.,0.8
1979-03-09 00:00:27.120 ,2,0,2.,0.8,0.,0.8,0.,0.8,13.,0.8
1979-03-09 00:00:27.920 ,2,0,5.,0.8,0.,0.8,0.,0.8,10.,0.8
1979-03-09 00:00:28.720 ,2,0,4.,0.8,0.,0.8,0.,0.8,12.,0.8
1979-03-09 00:00:29.520 ,2,0,1.,0.8,0.,0.8,0.,0.8,8.,0.8
1979-03-09 00:00:30.320 ,2,0,3.,0.8,0.,0.8,0.,0.8,13.,0.8
1979-03-09 00:00:31.120 ,2,0,3.,0.8,0.,0.8,0.,0.8,17.,0.8
1979-03-09 00:00:31.920 ,2,0,2.,0.8,0.,0.8,0.,0.8,5.,0.8
1979-03-09 00:00:32.720 ,2,0,2.,0.8,0.,0.8,0.,0.8,15.,0.8
1979-03-09 00:00:33.520 ,2,0,3.,0.8,0.,0.8,0.,0.8,13.,0.8
1979-03-09 00:00:34.320 ,2,0,1.,0.8,0.,0.8,0.,0.8,16.,0.8
1979-03-09 00:00:35.120 ,2,0,3.,0.8,0.,0.8,0.,0.8,18.,0.8
1979-03-09 00:00:35.920 ,2,0,3.,0.8,0.,0.8,0.,0.8,18.,0.8
1979-03-09 00:00:36.720 ,2,0,2.,0.8,0.,0.8,0.,0.8,15.,0.8
1979-03-09 00:00:37.520 ,2,0,2.,0.8,0.,0.8,0.,0.8,17.,0.8
1979-03-09 00:00:38.320 ,2,0,3.,0.8,0.,0.8,0.,0.8,18.,0.8
1979-03-09 00:00:39.120 ,2,0,1.,0.8,0.,0.8,0.,0.8,13.,0.8
1979-03-09 00:00:39.920 ,2,0,3.,0.8,0.,0.8,0.,0.8,15.,0.8
1979-03-09 00:00:40.720 ,2,0,1.,0.8,0.,0.8,0.,0.8,16.,0.8
1979-03-09 00:00:41.520 ,2,0,4.,0.8,0.,0.8,0.,0.8,13.,0.8
1979-03-09 00:00:42.320 ,2,0,4.,0.8,0.,0.8,0.,0.8,15.,0.8
1979-03-09 00:00:43.120 ,2,0,3.,0.8,0.,0.8,0.,0.8,20.,0.8
1979-03-09 00:00:43.920 ,2,0,4.,0.8,0.,0.8,0.,0.8,15.,0.8
1979-03-09 00:00:44.720 ,3,0,3.,0.8,0.,0.8,0.,0.8,16.,0.8
1979-03-09 00:00:45.520 ,3,0,3.,0.8,0.,0.8,0.,0.8,19.,0.8
1979-03-09 00:00:46.320 ,3,0,3.,0.8,0.,0.8,0.,0.8,12.,0.8
1979-03-09 00:00:47.120 ,3,0,1.,0.8,0.,0.8,0.,0.8,14.,0.8
1979-03-09 00:00:47.920 ,3,0,3.,0.8,0.,0.8,0.,0.8,15.,0.8
1979-03-09 00:00:48.720 ,3,0,2.,0.8,0.,0.8,0.,0.8,11.,0.8
1979-03-09 00:00:49.520 ,3,0,4.,0.8,0.,0.8,0.,0.8,10.,0.8
1979-03-09 00:00:50.320 ,3,0,3.,0.8,0.,0.8,0.,0.8,14.,0.8
1979-03-09 00:00:51.120 ,3,0,1.,0.8,0.,0.8,0.,0.8,4.,0.8
1979-03-09 00:00:51.920 ,3,0,1.,0.8,0.,0.8,0.,0.8,6.,0.8
1979-03-09 00:00:52.720 ,3,0,3.,0.8,0.,0.8,0.,0.8,4.,0.8
1979-03-09 00:00:53.520 ,3,0,1.,0.8,0.,0.8,0.,0.8,10.,0.8
1979-03-09 00:00:54.320 ,3,0,0.,0.8,0.,0.8,0.,0.8,8.,0.8
1979-03-09 00:00:55.120 ,3,0,3.,0.8,0.,0.8,0.,0.8,4.,0.8
1979-03-09 00:00:55.920 ,3,0,2.,0.8,0.,0.8,0.,0.8,9.,0.8
1979-03-09 00:00:56.720 ,3,0,2.,0.8,0.,0.8,0.,0.8,10.,0.8
1979-03-09 00:00:57.520 ,3,0,2.,0.8,0.,0.8,0.,0.8,3.,0.8
1979-03-09 00:00:58.320 ,3,0,2.,0.8,0.,0.8,0.,0.8,3.,0.8
1979-03-09 00:00:59.120 ,3,0,1.,0.8,0.,0.8,0.,0.8,5.,0.8
1979-03-09 00:00:59.920 ,3,0,1.,0.8,0.,0.8,0.,0.8,3.,0.8
1979-03-09 00:01:00.720 ,3,0,0.,0.8,0.,0.8,0.,0.8,2.,0.8
1979-03-09 00:01:01.520 ,3,0,4.,0.8,0.,0.8,0.,0.8,9.,0.8
1979-03-09 00:01:02.320 ,3,0,4.,0.8,0.,0.8,0.,0.8,5.,0.8
1979-03-09 00:01:03.120 ,3,0,2.,0.8,0.,0.8,0.,0.8,2.,0.8
1979-03-09 00:01:03.920 ,3,0,1.,0.8,0.,0.8,0.,0.8,2.,0.8
1979-03-09 00:01:04.720 ,3,0,2.,0.8,0.,0.8,0.,0.8,4.,0.8
1979-03-09 00:01:05.520 ,3,0,1.,0.8,0.,0.8,0.,0.8,2.,0.8
1979-03-09 00:01:06.320 ,3,0,1.,0.8,0.,0.8,0.,0.8,8.,0.8
1979-03-09 00:01:07.120 ,3,0,2.,0.8,0.,0.8,0.,0.8,4.,0.8
1979-03-09 00:01:07.920 ,3,0,1.,0.8,0.,0.8,0.,0.8,9.,0.8
1979-03-09 00:01:08.720 ,4,0,4.,0.8,0.,0.8,0.,0.8,7.,0.8
1979-03-09 00:01:09.520 ,4,0,4.,0.8,0.,0.8,0.,0.8,9.,0.8
1979-03-09 00:01:10.320 ,4,0,2.,0.8,0.,0.8,0.,0.8,6.,0.8
1979-03-09 00:01:11.120 ,4,0,0.,0.8,0.,0.8,0.,0.8,4.,0.8
1979-03-09 00:01:11.920 ,4,0,1.,0.8,0.,0.8,0.,0.8,4.,0.8
1979-03-09 00:01:12.720 ,4,0,3.,0.8,0.,0.8,0.,0.8,4.,0.8
1979-03-09 00:01:13.520 ,4,0,1.,0.8,0.,0.8,0.,0.8,4.,0.8
1979-03-09 00:01:14.320 ,4,0,3.,0.8,0.,0.8,0.,0.8,5.,0.8
1979-03-09 00:01:15.120 ,4,0,2.,0.8,0.,0.8,0.,0.8,5.,0.8
1979-03-09 00:01:15.920 ,4,0,2.,0.8,0.,0.8,0.,0.8,9.,0.8
1979-03-09 00:01:16.720 ,4,0,2.,0.8,0.,0.8,0.,0.8,13.,0.8
1979-03-09 00:01:17.520 ,4,0,3.,0.8,0.,0.8,0.,0.8,10.,0.8
1979-03-09 00:01:18.320 ,4,0,4.,0.8,0.,0.8,0.,0.8,6.,0.8
1979-03-09 00:01:19.120 ,4,0,2.,0.8,0.,0.8,0.,0.8,9.,0.8
1979-03-09 00:01:19.920 ,4,0,2.,0.8,0.,0.8,0.,0.8,9.,0.8
1979-03-09 00:01:20.720 ,4,0,5.,0.8,0.,0.8,0.,0.8,13.,0.8
1979-03-09 00:01:21.520 ,4,0,2.,0.8,0.,0.8,0.,0.8,10.,0.8
1979-03-09 00:01:22.320 ,4,0,3.,0.8,0.,0.8,0.,0.8,10.,0.8
1979-03-09 00:01:23.120 ,4,0,2.,0.8,0.,0.8,0.,0.8,8.,0.8
1979-03-09 00:01:23.920 ,4,0,1.,0.8,0.,0.8,0.,0.8,7.,0.8
1979-03-09 00:01:24.720 ,4,0,2.,0.8,0.,0.8,0.,0.8,12.,0.8
1979-03-09 00:01:25.520 ,4,0,2.,0.8,0.,0.8,0.,0.8,7.,0.8
1979-03-09 00:01:26.320 ,4,0,4.,0.8,0.,0.8,0.,0.8,19.,0.8
1979-03-09 00:01:27.120 ,4,0,2.,0.8,0.,0.8,0.,0.8,12.,0.8
1979-03-09 00:01:27.920 ,4,0,2.,0.8,0.,0.8,0.,0.8,16.,0.8
1979-03-09 00:01:28.720 ,4,0,3.,0.8,0.,0.8,0.,0.8,25.,0.8
1979-03-09 00:01:29.520 ,4,0,3.,0.8,0.,0.8,0.,0.8,18.,0.8
1979-03-09 00:01:30.320 ,4,0,4.,0.8,0.,0.8,0.,0.8,15.,0.8
1979-03-09 00:01:31.120 ,4,0,1.,0.8,0.,0.8,0.,0.8,14.,0.8
1979-03-09 00:01:31.920 ,4,0,2.,0.8,0.,0.8,0.,0.8,10.,0.8
1979-03-09 00:01:32.720 ,5,0,2.,0.8,0.,0.8,0.,0.8,7.,0.8
1979-03-09 00:01:33.520 ,5,0,3.,0.8,0.,0.8,0.,0.8,16.,0.8
1979-03-09 00:01:34.320 ,5,0,2.,0.8,0.,0.8,0.,0.8,20.,0.8
1979-03-09 00:01:35.120 ,5,0,2.,0.8,0.,0.8,0.,0.8,16.,0.8
1979-03-09 00:01:35.920 ,5,0,3.,0.8,0.,0.8,0.,0.8,12.,0.8
1979-03-09 00:01:36.720 ,5,0,3.,0.8,0.,0.8,0.,0.8,17.,0.8
1979-03-09 00:01:37.520 ,5,0,2.,0.8,0.,0.8,0.,0.8,17.,0.8
1979-03-09 00:01:38.320 ,5,0,2.,0.8,0.,0.8,0.,0.8,17.,0.8
1979-03-09 00:01:39.120 ,5,0,2.,0.8,0.,0.8,0.,0.8,14.,0.8
1979-03-09 00:01:39.920 ,5,0,4.,0.8,0.,0.8,0.,0.8,23.,0.8
1979-03-09 00:01:40.720 ,5,0,0.,0.8,0.,0.8,0.,0.8,17.,0.8
1979-03-09 00:01:41.520 ,5,0,3.,0.8,0.,0.8,0.,0.8,17.,0.8
1979-03-09 00:01:42.320 ,5,0,2.,0.8,0.,0.8,0.,0.8,16.,0.8
1979-03-09 00:01:43.120 ,5,0,1.,0.8,0.,0.8,0.,0.8,18.,0.8
1979-03-09 00:01:43.920 ,5,0,2.,0.8,0.,0.8,0.,0.8,23.,0.8
1979-03-09 00:01:44.720 ,5,0,4.,0.8,0.,0.8,0.,0.8,15.,0.8
1979-03-09 00:01:45.520 ,5,0,4.,0.8,0.,0.8,0.,0.8,16.,0.8
1979-03-09 00:01:46.320 ,5,0,3.,0.8,0.,0.8,0.,0.8,18.,0.8
1979-03-09 00:01:47.120 ,5,0,2.,0.8,0.,0.8,0.,0.8,18.,0.8
1979-03-09 00:01:47.920 ,5,0,2.,0.8,0.,0.8,0.,0.8,10.,0.8
1979-03-09 00:01:48.720 ,5,0,2.,0.8,0.,0.8,0.,0.8,17.,0.8
1979-03-09 00:01:49.520 ,5,0,2.,0.8,0.,0.8,0.,0.8,10.,0.8
1979-03-09 00:01:50.320 ,5,0,3.,0.8,0.,0.8,0.,0.8,13.,0.8
1979-03-09 00:01:51.120 ,5,0,2.,0.8,0.,0.8,0.,0.8,20.,0.8
1979-03-09 00:01:51.920 ,5,0,1.,0.8,0.,0.8,0.,0.8,15.,0.8
1979-03-09 00:01:52.720 ,5,0,1.,0.8,0.,0.8,0.,0.8,9.,0.8
1979-03-09 00:01:53.520 ,5,0,4.,0.8,0.,0.8,0.,0.8,19.,0.8
1979-03-09 00:01:54.320 ,5,0,4.,0.8,0.,0.8,0.,0.8,13.,0.8
1979-03-09 00:01:55.120 ,5,0,1.,0.8,0.,0.8,0.,0.8,21.,0.8
1979-03-09 00:01:55.920 ,5,0,3.,0.8,0.,0.8,0.,0.8,16.,0.8
1979-03-09 00:01:56.720 ,6,0,1.,0.8,0.,0.8,0.,0.8,23.,0.8
1979-03-09 00:01:57.520 ,6,0,2.,0.8,0.,0.8,0.,0.8,18.,0.8
1979-03-09 00:01:58.320 ,6,0,2.,0.8,0.,0.8,0.,0.8,13.,0.8
1979-03-09 00:01:59.120 ,6,0,2.,0.8,0.,0.8,0.,0.8,19.,0.8
1979-03-09 00:01:59.920 ,6,0,3.,0.8,0.,0.8,0.,0.8,11.,0.8
1979-03-09 00:02:00.720 ,6,0,2.,0.8,0.,0.8,0.,0.8,22.,0.8
1979-03-09 00:02:01.520 ,6,0,3.,0.8,0.,0.8,0.,0.8,17.,0.8
1979-03-09 00:02:02.320 ,6,0,1.,0.8,0.,0.8,0.,0.8,15.,0.8
1979-03-09 00:02:03.120 ,6,0,3.,0.8,0.,0.8,0.,0.8,17.,0.8
1979-03-09 00:02:03.920 ,6,0,2.,0.8,0.,0.8,0.,0.8,15.,0.8
1979-03-09 00:02:04.720 ,6,0,4.,0.8,0.,0.8,0.,0.8,19.,0.8
1979-03-09 00:02:05.520 ,6,0,2.,0.8,0.,0.8,0.,0.8,15.,0.8
1979-03-09 00:02:06.320 ,6,0,4.,0.8,0.,0.8,0.,0.8,23.,0.8
1979-03-09 00:02:07.120 ,6,0,3.,0.8,0.,0.8,0.,0.8,19.,0.8
1979-03-09 00:02:07.920 ,6,0,4.,0.8,0.,0.8,0.,0.8,22.,0.8
1979-03-09 00:02:08.720 ,6,0,3.,0.8,0.,0.8,0.,0.8,15.,0.8
1979-03-09 00:02:09.520 ,6,0,3.,0.8,0.,0.8,0.,0.8,21.,0.8
1979-03-09 00:02:10.320 ,6,0,2.,0.8,0.,0.8,0.,0.8,16.,0.8
1979-03-09 00:02:11.120 ,6,0,2.,0.8,0.,0.8,0.,0.8,22.,0.8
1979-03-09 00:02:11.920 ,6,0,2.,0.8,0.,0.8,0.,0.8,16.,0.8
1979-03-09 00:02:12.720 ,6,0,2.,0.8,0.,0.8,0.,0.8,20.,0.8
1979-03-09 00:02:13.520 ,6,0,2.,0.8,0.,0.8,0.,0.8,13.,0.8
1979-03-09 00:02:14.320 ,6,0,2.,0.8,0.,0.8,0.,0.8,21.,0.8
1979-03-09 00:02:15.120 ,6,0,2.,0.8,0.,0.8,0.,0.8,15.,0.8
1979-03-09 00:02:15.920 ,6,0,1.,0.8,0.,0.8,0.,0.8,20.,0.8
1979-03-09 00:02:16.720 ,6,0,2.,0.8,0.,0.8,0.,0.8,25.,0.8
1979-03-09 00:02:17.520 ,6,0,2.,0.8,0.,0.8,1.,0.8,16.,0.8
1979-03-09 00:02:18.320 ,6,0,1.,0.8,0.,0.8,0.,0.8,23.,0.8
1979-03-09 00:02:19.120 ,6,0,2.,0.8,0.,0.8,0.,0.8,19.,0.8
1979-03-09 00:02:19.920 ,6,0,4.,0.8,0.,0.8,0.,0.8,14.,0.8
1979-03-09 00:02:20.720 ,7,0,2.,0.8,0.,0.8,0.,0.8,24.,0.8
1979-03-09 00:02:21.520 ,7,0,3.,0.8,0.,0.8,0.,0.8,24.,0.8
1979-03-09 00:02:22.320 ,7,0,1.,0.8,0.,0.8,0.,0.8,25.,0.8
1979-03-09 00:02:23.120 ,7,0,2.,0.8,0.,0.8,0.,0.8,26.,0.8
1979-03-09 00:02:23.920 ,7,0,3.,0.8,0.,0.8,0.,0.8,14.,0.8
1979-03-09 00:02:24.720 ,7,0,3.,0.8,0.,0.8,0.,0.8,14.,0.8
1979-03-09 00:02:25.520 ,7,0,0.,0.8,0.,0.8,0.,0.8,22.,0.8
1979-03-09 00:02:26.320 ,7,0,2.,0.8,0.,0.8,0.,0.8,22.,0.8
1979-03-09 00:02:27.120 ,7,0,0.,0.8,0.,0.8,0.,0.8,20.,0.8
1979-03-09 00:02:27.920 ,7,0,1.,0.8,0.,0.8,0.,0.8,12.,0.8
1979-03-09 00:02:28.720 ,7,0,1.,0.8,0.,0.8,0.,0.8,15.,0.8
1979-03-09 00:02:29.520 ,7,0,2.,0.8,0.,0.8,0.,0.8,29.,0.8
1979-03-09 00:02:30.320 ,7,0,1.,0.8,0.,0.8,0.,0.8,19.,0.8
1979-03-09 00:02:31.120 ,7,0,2.,0.8,0.,0.8,0.,0.8,24.,0.8
1979-03-09 00:02:31.920 ,7,0,2.,0.8,0.,0.8,0.,0.8,19.,0.8
1979-03-09 00:02:32.720 ,7,0,1.,0.8,0.,0.8,0.,0.8,16.,0.8
1979-03-09 00:02:33.520 ,7,0,2.,0.8,0.,0.8,0.,0.8,16.,0.8
1979-03-09 00:02:34.320 ,7,0,2.,0.8,0.,0.8,0.,0.8,18.,0.8
1979-03-09 00:02:35.120 ,7,0,3.,0.8,0.,0.8,0.,0.8,11.,0.8
1979-03-09 00:02:35.920 ,7,0,2.,0.8,0.,0.8,0.,0.8,23.,0.8
1979-03-09 00:02:36.720 ,7,0,2.,0.8,0.,0.8,0.,0.8,22.,0.8
1979-03-09 00:02:37.520 ,7,0,3.,0.8,0.,0.8,0.,0.8,17.,0.8
1979-03-09 00:02:38.320 ,7,0,0.,0.8,0.,0.8,0.,0.8,12.,0.8
1979-03-09 00:02:39.120 ,7,0,2.,0.8,0.,0.8,0.,0.8,12.,0.8
1979-03-09 00:02:39.920 ,7,0,3.,0.8,0.,0.8,0.,0.8,16.,0.8
1979-03-09 00:02:40.720 ,7,0,0.,0.8,0.,0.8,0.,0.8,15.,0.8
1979-03-09 00:02:41.520 ,7,0,2.,0.8,0.,0.8,0.,0.8,12.,0.8
1979-03-09 00:02:42.320 ,7,0,0.,0.8,0.,0.8,0.,0.8,18.,0.8
1979-03-09 00:02:43.120 ,7,0,1.,0.8,0.,0.8,0.,0.8,16.,0.8
1979-03-09 00:02:43.920 ,7,0,3.,0.8,0.,0.8,0.,0.8,15.,0.8
1979-03-09 00:02:44.720 ,7,0,2.,0.8,0.,0.8,0.,0.8,16.,0.8
1979-03-09 00:02:45.520 ,7,0,2.,0.8,0.,0.8,0.,0.8,19.,0.8
1979-03-09 00:02:46.320 ,7,0,0.,0.8,0.,0.8,0.,0.8,11.,0.8
1979-03-09 00:02:47.120 ,7,0,3.,0.8,0.,0.8,0.,0.8,21.,0.8
1979-03-09 00:02:47.920 ,7,0,1.,0.8,0.,0.8,0.,0.8,20.,0.8
1979-03-09 00:02:48.720 ,7,0,0.,0.8,0.,0.8,0.,0.8,17.,0.8
1979-03-09 00:02:49.520 ,7,0,3.,0.8,0.,0.8,0.,0.8,25.,0.8
1979-03-09 00:02:50.320 ,7,0,1.,0.8,0.,0.8,0.,0.8,20.,0.8
1979-03-09 00:02:51.120 ,7,0,3.,0.8,0.,0.8,0.,0.8,21.,0.8
1979-03-09 00:02:51.920 ,7,0,2.,0.8,0.,0.8,0.,0.8,17.,0.8
1979-03-09 00:02:52.720 ,7,0,0.,0.8,0.,0.8,0.,0.8,16.,0.8
1979-03-09 00:02:53.520 ,7,0,2.,0.8,0.,0.8,0.,0.8,16.,0.8
1979-03-09 00:02:54.320 ,7,0,1.,0.8,0.,0.8,0.,0.8,10.,0.8
1979-03-09 00:02:55.120 ,7,0,3.,0.8,0.,0.8,0.,0.8,15.,0.8
1979-03-09 00:02:55.920 ,7,0,2.,0.8,0.,0.8,0.,0.8,18.,0.8
1979-03-09 00:02:56.720 ,7,0,2.,0.8,0.,0.8,0.,0.8,18.,0.8
1979-03-09 00:02:57.520 ,7,0,1.,0.8,0.,0.8,0.,0.8,19.,0.8
1979-03-09 00:02:58.320 ,7,0,1.,0.8,0.,0.8,0.,0.8,24.,0.8
1979-03-09 00:02:59.120 ,7,0,2.,0.8,0.,0.8,0.,0.8,18.,0.8
1979-03-09 00:02:59.920 ,7,0,3.,0.8,0.,0.8,0.,0.8,14.,0.8
1979-03-09 00:03:00.720 ,7,0,1.,0.8,0.,0.8,0.,0.8,19.,0.8
1979-03-09 00:03:01.520 ,7,0,3.,0.8,0.,0.8,0.,0.8,18.,0.8
1979-03-09 00:03:02.320 ,7,0,2.,0.8,0.,0.8,0.,0.8,21.,0.8
1979-03-09 00:03:03.120 ,7,0,4.,0.8,0.,0.8,0.,0.8,13.,0.8
1979-03-09 00:03:03.920 ,7,0,2.,0.8,0.,0.8,0.,0.8,16.,0.8
1979-03-09 00:03:04.720 ,7,0,1.,0.8,0.,0.8,0.,0.8,19.,0.8
1979-03-09 00:03:05.520 ,7,0,2.,0.8,0.,0.8,0.,0.8,21.,0.8
1979-03-09 00:03:06.320 ,7,0,3.,0.8,0.,0.8,0.,0.8,22.,0.8
1979-03-09 00:03:07.120 ,7,0,2.,0.8,0.,0.8,0.,0.8,19.,0.8
1979-03-09 00:03:07.920 ,7,0,1.,0.8,0.,0.8,0.,0.8,22.,0.8
1979-03-09 00:03:08.720 ,6,0,3.,0.8,0.,0.8,0.,0.8,11.,0.8
1979-03-09 00:03:09.520 ,6,0,3.,0.8,0.,0.8,0.,0.8,17.,0.8
1979-03-09 00:03:10.320 ,6,0,1.,0.8,0.,0.8,0.,0.8,15.,0.8
1979-03-09 00:03:11.120 ,6,0,3.,0.8,0.,0.8,0.,0.8,21.,0.8
1979-03-09 00:03:11.920 ,6,0,1.,0.8,0.,0.8,0.,0.8,19.,0.8
1979-03-09 00:03:12.720 ,6,0,3.,0.8,0.,0.8,0.,0.8,24.,0.8
1979-03-09 00:03:13.520 ,6,0,2.,0.8,0.,0.8,0.,0.8,14.,0.8
1979-03-09 00:03:14.320 ,6,0,2.,0.8,0.,0.8,0.,0.8,19.,0.8
1979-03-09 00:03:15.120 ,6,0,1.,0.8,0.,0.8,0.,0.8,21.,0.8
1979-03-09 00:03:15.920 ,6,0,3.,0.8,0.,0.8,0.,0.8,20.,0.8
1979-03-09 00:03:16.720 ,6,0,3.,0.8,0.,0.8,0.,0.8,22.,0.8
1979-03-09 00:03:17.520 ,6,0,4.,0.8,0.,0.8,0.,0.8,39.,0.8
1979-03-09 00:03:18.320 ,6,0,2.,0.8,0.,0.8,0.,0.8,28.,0.8
1979-03-09 00:03:19.120 ,6,0,3.,0.8,0.,0.8,0.,0.8,15.,0.8
1979-03-09 00:03:19.920 ,6,0,1.,0.8,0.,0.8,0.,0.8,29.,0.8
1979-03-09 00:03:20.720 ,6,0,1.,0.8,0.,0.8,0.,0.8,21.,0.8
1979-03-09 00:03:21.520 ,6,0,3.,0.8,0.,0.8,0.,0.8,28.,0.8
1979-03-09 00:03:22.320 ,6,0,1.,0.8,0.,0.8,0.,0.8,23.,0.8
1979-03-09 00:03:23.120 ,6,0,2.,0.8,0.,0.8,0.,0.8,18.,0.8
1979-03-09 00:03:23.920 ,6,0,1.,0.8,0.,0.8,0.,0.8,23.,0.8
1979-03-09 00:03:24.720 ,6,0,1.,0.8,0.,0.8,0.,0.8,18.,0.8
1979-03-09 00:03:25.520 ,6,0,2.,0.8,0.,0.8,0.,0.8,14.,0.8
1979-03-09 00:03:26.320 ,6,0,2.,0.8,0.,0.8,0.,0.8,19.,0.8
1979-03-09 00:03:27.120 ,6,0,3.,0.8,1.,0.8,0.,0.8,23.,0.8
1979-03-09 00:03:27.920 ,6,0,3.,0.8,0.,0.8,0.,0.8,20.,0.8
1979-03-09 00:03:28.720 ,6,0,2.,0.8,0.,0.8,0.,0.8,22.,0.8
1979-03-09 00:03:29.520 ,6,0,2.,0.8,0.,0.8,0.,0.8,23.,0.8
1979-03-09 00:03:30.320 ,6,0,0.,0.8,0.,0.8,0.,0.8,25.,0.8
1979-03-09 00:03:31.120 ,6,0,4.,0.8,0.,0.8,0.,0.8,19.,0.8
1979-03-09 00:03:31.920 ,6,0,2.,0.8,0.,0.8,0.,0.8,14.,0.8
1979-03-09 00:03:32.720 ,5,0,2.,0.8,0.,0.8,0.,0.8,21.,0.8
1979-03-09 00:03:33.520 ,5,0,4.,0.8,0.,0.8,0.,0.8,12.,0.8
1979-03-09 00:03:34.320 ,5,0,3.,0.8,0.,0.8,0.,0.8,18.,0.8
1979-03-09 00:03:35.120 ,5,0,1.,0.8,0.,0.8,0.,0.8,19.,0.8
1979-03-09 00:03:35.920 ,5,0,4.,0.8,0.,0.8,0.,0.8,28.,0.8
1979-03-09 00:03:36.720 ,5,0,2.,0.8,0.,0.8,0.,0.8,19.,0.8
1979-03-09 00:03:37.520 ,5,0,2.,0.8,0.,0.8,0.,0.8,22.,0.8
1979-03-09 00:03:38.320 ,5,0,4.,0.8,0.,0.8,0.,0.8,22.,0.8
1979-03-09 00:03:39.120 ,5,0,2.,0.8,0.,0.8,0.,0.8,17.,0.8
1979-03-09 00:03:39.920 ,5,0,3.,0.8,0.,0.8,0.,0.8,24.,0.8
1979-03-09 00:03:40.720 ,5,0,1.,0.8,0.,0.8,0.,0.8,15.,0.8
1979-03-09 00:03:41.520 ,5,0,1.,0.8,0.,0.8,0.,0.8,16.,0.8
1979-03-09 00:03:42.320 ,5,0,1.,0.8,0.,0.8,0.,0.8,17.,0.8
1979-03-09 00:03:43.120 ,5,0,2.,0.8,0.,0.8,0.,0.8,15.,0.8
1979-03-09 00:03:43.920 ,5,0,1.,0.8,0.,0.8,0.,0.8,21.,0.8
1979-03-09 00:03:44.720 ,5,0,3.,0.8,0.,0.8,0.,0.8,23.,0.8
1979-03-09 00:03:45.520 ,5,0,2.,0.8,0.,0.8,0.,0.8,23.,0.8
1979-03-09 00:03:46.320 ,5,0,1.,0.8,0.,0.8,0.,0.8,20.,0.8
1979-03-09 00:03:47.120 ,5,0,3.,0.8,0.,0.8,0.,0.8,30.,0.8
1979-03-09 00:03:47.920 ,5,0,3.,0.8,0.,0.8,0.,0.8,27.,0.8
1979-03-09 00:03:48.720 ,5,0,2.,0.8,0.,0.8,0.,0.8,24.,0.8
1979-03-09 00:03:49.520 ,5,0,2.,0.8,0.,0.8,0.,0.8,18.,0.8
1979-03-09 00:03:50.320 ,5,0,1.,0.8,0.,0.8,0.,0.8,21.,0.8
1979-03-09 00:03:51.120 ,5,0,3.,0.8,0.,0.8,0.,0.8,12.,0.8
1979-03-09 00:03:51.920 ,5,0,2.,0.8,0.,0.8,0.,0.8,19.,0.8
1979-03-09 00:03:52.720 ,5,0,2.,0.8,0.,0.8,0.,0.8,24.,0.8
1979-03-09 00:03:53.520 ,5,0,2.,0.8,0.,0.8,0.,0.8,21.,0.8
1979-03-09 00:03:54.320 ,5,0,2.,0.8,0.,0.8,0.,0.8,20.,0.8
1979-03-09 00:03:55.120 ,5,0,0.,0.8,0.,0.8,0.,0.8,19.,0.8
1979-03-09 00:03:55.920 ,5,0,2.,0.8,0.,0.8,0.,0.8,12.,0.8
1979-03-09 00:03:56.720 ,4,0,2.,0.8,0.,0.8,0.,0.8,11.,0.8
1979-03-09 00:03:57.520 ,4,0,3.,0.8,0.,0.8,0.,0.8,19.,0.8
1979-03-09 00:03:58.320 ,4,0,3.,0.8,0.,0.8,0.,0.8,22.,0.8
1979-03-09 00:03:59.120 ,4,0,3.,0.8,0.,0.8,0.,0.8,14.,0.8
1979-03-09 00:03:59.920 ,4,0,4.,0.8,0.,0.8,0.,0.8,23.,0.8
1979-03-09 00:04:00.720 ,4,0,1.,0.8,0.,0.8,0.,0.8,14.,0.8
1979-03-09 00:04:01.520 ,4,0,3.,0.8,0.,0.8,0.,0.8,18.,0.8
1979-03-09 00:04:02.320 ,4,0,0.,0.8,0.,0.8,0.,0.8,21.,0.8
1979-03-09 00:04:03.120 ,4,0,3.,0.8,0.,0.8,0.,0.8,10.,0.8
1979-03-09 00:04:03.920 ,4,0,3.,0.8,0.,0.8,0.,0.8,17.,0.8
1979-03-09 00:04:04.720 ,4,0,3.,0.8,0.,0.8,0.,0.8,19.,0.8
1979-03-09 00:04:05.520 ,4,0,2.,0.8,0.,0.8,0.,0.8,14.,0.8
1979-03-09 00:04:06.320 ,4,0,2.,0.8,0.,0.8,0.,0.8,20.,0.8
1979-03-09 00:04:07.120 ,4,0,4.,0.8,0.,0.8,0.,0.8,14.,0.8
1979-03-09 00:04:07.920 ,4,0,1.,0.8,0.,0.8,0.,0.8,19.,0.8
1979-03-09 00:04:08.720 ,4,0,1.,0.8,0.,0.8,0.,0.8,20.,0.8
1979-03-09 00:04:09.520 ,4,0,2.,0.8,0.,0.8,0.,0.8,19.,0.8
1979-03-09 00:04:10.320 ,4,0,5.,0.8,0.,0.8,0.,0.8,17.,0.8
1979-03-09 00:04:11.120 ,4,0,1.,0.8,0.,0.8,0.,0.8,16.,0.8
1979-03-09 00:04:11.920 ,4,0,2.,0.8,0.,0.8,0.,0.8,21.,0.8
1979-03-09 00:04:12.720 ,4,0,1.,0.8,0.,0.8,0.,0.8,15.,0.8
1979-03-09 00:04:13.520 ,4,0,3.,0.8,0.,0.8,0.,0.8,15.,0.8
1979-03-09 00:04:14.320 ,4,0,3.,0.8,0.,0.8,0.,0.8,14.,0.8
1979-03-09 00:04:15.120 ,4,0,3.,0.8,0.,0.8,0.,0.8,19.,0.8
1979-03-09 00:04:15.920 ,4,0,2.,0.8,0.,0.8,0.,0.8,24.,0.8
1979-03-09 00:04:16.720 ,4,0,1.,0.8,0.,0.8,0.,0.8,15.,0.8
1979-03-09 00:04:17.520 ,4,0,2.,0.8,0.,0.8,0.,0.8,13.,0.8
1979-03-09 00:04:18.320 ,4,0,2.,0.8,0.,0.8,0.,0.8,8.,0.8
1979-03-09 00:04:19.120 ,4,0,3.,0.8,0.,0.8,0.,0.8,16.,0.8
1979-03-09 00:04:19.920 ,4,0,3.,0.8,0.,0.8,0.,0.8,19.,0.8
1979-03-09 00:04:20.720 ,3,0,3.,0.8,0.,0.8,0.,0.8,18.,0.8
1979-03-09 00:04:21.520 ,3,0,1.,0.8,0.,0.8,0.,0.8,17.,0.8
1979-03-09 00:04:22.320 ,3,0,4.,0.8,0.,0.8,0.,0.8,19.,0.8
1979-03-09 00:04:23.120 ,3,0,4.,0.8,0.,0.8,0.,0.8,17.,0.8
1979-03-09 00:04:23.920 ,3,0,3.,0.8,0.,0.8,0.,0.8,17.,0.8
1979-03-09 00:04:24.720 ,3,0,4.,0.8,0.,0.8,0.,0.8,20.,0.8
1979-03-09 00:04:25.520 ,3,0,2.,0.8,0.,0.8,0.,0.8,15.,0.8
1979-03-09 00:04:26.320 ,3,0,2.,0.8,0.,0.8,0.,0.8,21.,0.8
1979-03-09 00:04:27.120 ,3,0,4.,0.8,0.,0.8,0.,0.8,16.,0.8
1979-03-09 00:04:27.920 ,3,0,1.,0.8,0.,0.8,0.,0.8,7.,0.8
1979-03-09 00:04:28.720 ,3,0,2.,0.8,0.,0.8,0.,0.8,6.,0.8
1979-03-09 00:04:29.520 ,3,0,2.,0.8,0.,0.8,0.,0.8,6.,0.8
1979-03-09 00:04:30.320 ,3,0,2.,0.8,0.,0.8,0.,0.8,11.,0.8
1979-03-09 00:04:31.120 ,3,0,2.,0.8,0.,0.8,0.,0.8,14.,0.8
1979-03-09 00:04:31.920 ,3,0,2.,0.8,0.,0.8,0.,0.8,12.,0.8
1979-03-09 00:04:32.720 ,3,0,3.,0.8,0.,0.8,0.,0.8,10.,0.8
1979-03-09 00:04:33.520 ,3,0,2.,0.8,0.,0.8,0.,0.8,8.,0.8
1979-03-09 00:04:34.320 ,3,0,3.,0.8,0.,0.8,0.,0.8,14.,0.8
1979-03-09 00:04:35.120 ,3,0,2.,0.8,0.,0.8,0.,0.8,13.,0.8
1979-03-09 00:04:35.920 ,3,0,3.,0.8,0.,0.8,0.,0.8,17.,0.8
1979-03-09 00:04:36.720 ,3,0,0.,0.8,0.,0.8,0.,0.8,9.,0.8
1979-03-09 00:04:37.520 ,3,0,2.,0.8,0.,0.8,0.,0.8,7.,0.8
1979-03-09 00:04:38.320 ,3,0,4.,0.8,0.,0.8,0.,0.8,12.,0.8
1979-03-09 00:04:39.120 ,3,0,3.,0.8,0.,0.8,0.,0.8,6.,0.8
1979-03-09 00:04:39.920 ,3,0,3.,0.8,0.,0.8,0.,0.8,8.,0.8
1979-03-09 00:04:40.720 ,3,0,3.,0.8,0.,0.8,0.,0.8,8.,0.8
1979-03-09 00:04:41.520 ,3,0,1.,0.8,0.,0.8,0.,0.8,6.,0.8
1979-03-09 00:04:42.320 ,3,0,2.,0.8,0.,0.8,0.,0.8,3.,0.8
1979-03-09 00:04:43.120 ,3,0,2.,0.8,0.,0.8,0.,0.8,6.,0.8
1979-03-09 00:04:43.920 ,3,0,2.,0.8,0.,0.8,0.,0.8,3.,0.8
1979-03-09 00:04:44.720 ,2,0,4.,0.8,0.,0.8,0.,0.8,9.,0.8
1979-03-09 00:04:45.520 ,2,0,3.,0.8,0.,0.8,0.,0.8,5.,0.8
1979-03-09 00:04:46.320 ,2,0,3.,0.8,0.,0.8,0.,0.8,14.,0.8
1979-03-09 00:04:47.120 ,2,0,1.,0.8,0.,0.8,0.,0.8,4.,0.8
1979-03-09 00:04:47.920 ,2,0,2.,0.8,0.,0.8,0.,0.8,10.,0.8
1979-03-09 00:04:48.720 ,2,0,2.,0.8,0.,0.8,0.,0.8,8.,0.8
1979-03-09 00:04:49.520 ,2,0,3.,0.8,0.,0.8,0.,0.8,6.,0.8
1979-03-09 00:04:50.320 ,2,0,3.,0.8,0.,0.8,0.,0.8,14.,0.8
1979-03-09 00:04:51.120 ,2,0,3.,0.8,0.,0.8,0.,0.8,12.,0.8
1979-03-09 00:04:51.920 ,2,0,2.,0.8,0.,0.8,0.,0.8,23.,0.8
1979-03-09 00:04:52.720 ,2,0,3.,0.8,0.,0.8,0.,0.8,18.,0.8
1979-03-09 00:04:53.520 ,2,0,2.,0.8,0.,0.8,0.,0.8,9.,0.8
1979-03-09 00:04:54.320 ,2,0,2.,0.8,0.,0.8,0.,0.8,10.,0.8
1979-03-09 00:04:55.120 ,2,0,4.,0.8,0.,0.8,0.,0.8,18.,0.8
1979-03-09 00:04:55.920 ,2,0,3.,0.8,0.,0.8,0.,0.8,10.,0.8
1979-03-09 00:04:56.720 ,2,0,3.,0.8,0.,0.8,0.,0.8,12.,0.8
1979-03-09 00:04:57.520 ,2,0,1.,0.8,0.,0.8,0.,0.8,15.,0.8
1979-03-09 00:04:58.320 ,2,0,4.,0.8,0.,0.8,0.,0.8,15.,0.8
1979-03-09 00:04:59.120 ,2,0,3.,0.8,0.,0.8,0.,0.8,20.,0.8
1979-03-09 00:04:59.920 ,2,0,0.,0.8,0.,0.8,0.,0.8,15.,0.8
1979-03-09 00:05:00.720 ,2,0,1.,0.8,0.,0.8,0.,0.8,21.,0.8
1979-03-09 00:05:01.520 ,2,0,3.,0.8,0.,0.8,0.,0.8,19.,0.8
1979-03-09 00:05:02.320 ,2,0,4.,0.8,0.,0.8,0.,0.8,18.,0.8
1979-03-09 00:05:03.120 ,2,0,2.,0.8,0.,0.8,0.,0.8,15.,0.8
1979-03-09 00:05:03.920 ,2,0,2.,0.8,0.,0.8,0.,0.8,15.,0.8
1979-03-09 00:05:04.720 ,2,0,2.,0.8,0.,0.8,0.,0.8,14.,0.8
1979-03-09 00:05:05.520 ,2,0,3.,0.8,0.,0.8,0.,0.8,12.,0.8
1979-03-09 00:05:06.320 ,2,0,3.,0.8,0.,0.8,0.,0.8,18.,0.8
1979-03-09 00:05:07.120 ,2,0,3.,0.8,0.,0.8,0.,0.8,15.,0.8
1979-03-09 00:05:07.920 ,2,0,2.,0.8,0.,0.8,0.,0.8,14.,0.8
1979-03-09 00:05:08.720 ,1,0,4.,0.8,0.,0.8,0.,0.8,13.,0.8
1979-03-09 00:05:09.520 ,1,0,0.,0.8,0.,0.8,0.,0.8,13.,0.8
1979-03-09 00:05:10.320 ,1,0,2.,0.8,0.,0.8,0.,0.8,20.,0.8
1979-03-09 00:05:11.120 ,1,0,2.,0.8,0.,0.8,0.,0.8,14.,0.8
1979-03-09 00:05:11.920 ,1,0,3.,0.8,1.,0.8,0.,0.8,14.,0.8
1979-03-09 00:05:12.720 ,1,0,3.,0.8,0.,0.8,0.,0.8,16.,0.8
1979-03-09 00:05:13.520 ,1,0,5.,0.8,0.,0.8,0.,0.8,14.,0.8
1979-03-09 00:05:14.320 ,1,0,0.,0.8,0.,0.8,0.,0.8,9.,0.8
1979-03-09 00:05:15.120 ,1,0,1.,0.8,0.,0.8,0.,0.8,17.,0.8
1979-03-09 00:05:15.920 ,1,0,2.,0.8,0.,0.8,0.,0.8,16.,0.8
1979-03-09 00:05:16.720 ,1,0,3.,0.8,0.,0.8,0.,0.8,16.,0.8
1979-03-09 00:05:17.520 ,1,0,0.,0.8,0.,0.8,0.,0.8,18.,0.8
1979-03-09 00:05:18.320 ,1,0,4.,0.8,0.,0.8,0.,0.8,15.,0.8
1979-03-09 00:05:19.120 ,1,0,4.,0.8,0.,0.8,0.,0.8,16.,0.8
1979-03-09 00:05:19.920 ,1,0,2.,0.8,0.,0.8,0.,0.8,10.,0.8
1979-03-09 00:05:20.720 ,1,0,2.,0.8,0.,0.8,0.,0.8,22.,0.8
1979-03-09 00:05:21.520 ,1,0,0.,0.8,0.,0.8,0.,0.8,16.,0.8
1979-03-09 00:05:22.320 ,1,0,0.,0.8,0.,0.8,0.,0.8,14.,0.8
1979-03-09 00:05:23.120 ,1,0,3.,0.8,0.,0.8,0.,0.8,17.,0.8
1979-03-09 00:05:23.920 ,1,0,2.,0.8,0.,0.8,0.,0.8,10.,0.8
1979-03-09 00:05:24.720 ,1,0,2.,0.8,0.,0.8,0.,0.8,12.,0.8
1979-03-09 00:05:25.520 ,1,0,1.,0.8,0.,0.8,0.,0.8,12.,0.8
1979-03-09 00:05:26.320 ,1,0,3.,0.8,0.,0.8,0.,0.8,12.,0.8
1979-03-09 00:05:27.120 ,1,0,1.,0.8,0.,0.8,0.,0.8,8.,0.8
1979-03-09 00:05:27.920 ,1,0,3.,0.8,0.,0.8,0.,0.8,12.,0.8
1979-03-09 00:05:28.720 ,1,0,2.,0.8,0.,0.8,0.,0.8,10.,0.8
1979-03-09 00:05:29.520 ,1,0,2.,0.8,0.,0.8,0.,0.8,27.,0.8
1979-03-09 00:05:30.320 ,1,0,2.,0.8,0.,0.8,0.,0.8,16.,0.8
1979-03-09 00:05:31.120 ,1,0,1.,0.8,0.,0.8,0.,0.8,13.,0.8
1979-03-09 00:05:31.920 ,1,0,3.,0.8,0.,0.8,0.,0.8,17.,0.8
1979-03-09 00:05:32.720 ,0,0,2.,0.8,0.,0.8,0.,0.8,17.,0.8
1979-03-09 00:05:33.520 ,0,0,2.,0.8,0.,0.8,0.,0.8,10.,0.8
1979-03-09 00:05:34.320 ,0,0,1.,0.8,0.,0.8,0.,0.8,14.,0.8
1979-03-09 00:05:35.120 ,0,0,3.,0.8,0.,0.8,0.,0.8,9.,0.8
1979-03-09 00:05:35.920 ,0,0,2.,0.8,0.,0.8,0.,0.8,16.,0.8
1979-03-09 00:05:36.720 ,0,0,3.,0.8,0.,0.8,0.,0.8,12.,0.8
1979-03-09 00:05:37.520 ,0,0,3.,0.8,0.,0.8,0.,0.8,10.,0.8
1979-03-09 00:05:38.320 ,0,0,1.,0.8,0.,0.8,0.,0.8,11.,0.8
1979-03-09 00:05:39.120 ,0,0,1.,0.8,0.,0.8,0.,0.8,9.,0.8
1979-03-09 00:05:39.920 ,0,0,1.,0.8,0.,0.8,0.,0.8,12.,0.8
1979-03-09 00:05:40.720 ,0,0,3.,0.8,0.,0.8,0.,0.8,20.,0.8
1979-03-09 00:05:41.520 ,0,0,1.,0.8,0.,0.8,0.,0.8,19.,0.8
1979-03-09 00:05:42.320 ,0,0,1.,0.8,0.,0.8,0.,0.8,14.,0.8
1979-03-09 00:05:43.120 ,0,0,3.,0.8,0.,0.8,0.,0.8,13.,0.8
1979-03-09 00:05:43.920 ,0,0,2.,0.8,0.,0.8,0.,0.8,20.,0.8
1979-03-09 00:05:44.720 ,0,0,4.,0.8,0.,0.8,0.,0.8,14.,0.8